�N����,����,�~����,�C��,���x,�C��,����,���ϕ���,�ő�u�ԕ���,�ő厞����,���˗�,�I�_���x,�n�����x,�ő啗���N��,DTYPE
"16/08/28","00:10",0.0,22.0,81.9,999.1,267.0,1.2,2.7,242.8,0.00,18.8,24.7,"00:01:12",1
"16/08/28","00:20",0.0,21.8,82.4,999.1,271.4,1.0,1.6,218.3,0.00,18.7,24.7,"00:15:12",1
"16/08/28","00:30",0.0,21.6,82.8,999.1,296.6,1.0,1.3,319.4,0.00,18.6,24.6,"00:23:36",1
"16/08/28","00:40",0.0,21.5,83.6,999.3,285.9,1.0,1.6,304.7,0.00,18.6,24.6,"00:35:52",1
"16/08/28","00:50",0.0,21.4,84.4,999.1,295.1,0.8,1.3,314.1,0.00,18.7,24.6,"00:41:20",1
"16/08/28","01:00",0.0,21.4,84.9,999.3,298.7,1.0,1.8,332.3,0.00,18.8,24.6,"00:53:04",1
"16/08/28","01:10",0.0,21.4,85.0,998.9,289.6,0.8,1.1,253.3,0.00,18.8,24.7,"01:01:44",1
"16/08/28","01:20",0.0,21.4,85.1,999.1,288.6,1.0,1.4,311.9,0.00,18.8,24.6,"01:12:16",1
"16/08/28","01:30",0.0,21.5,84.8,998.6,279.8,0.8,1.1,302.6,0.00,18.9,24.4,"01:20:08",1
"16/08/28","01:40",0.0,21.6,84.6,998.9,275.4,1.1,2.4,240.6,0.00,18.9,24.4,"01:35:12",1
"16/08/28","01:50",0.0,21.8,84.0,998.9,277.8,1.2,2.4,239.4,0.00,19.0,24.5,"01:48:32",1
"16/08/28","02:00",0.0,21.8,83.5,998.9,280.0,1.5,2.5,239.7,0.00,18.9,24.6,"01:54:48",1
"16/08/28","02:10",0.0,21.8,83.5,998.6,292.3,1.1,1.7,310.6,0.00,18.9,24.6,"02:06:40",1
"16/08/28","02:20",0.0,21.7,83.5,998.9,287.3,1.0,1.2,307.4,0.00,18.8,24.4,"02:19:44",1
"16/08/28","02:30",0.0,21.8,83.7,998.6,281.6,0.8,1.4,243.4,0.00,19.0,24.5,"02:24:40",1
"16/08/28","02:40",0.0,21.8,84.1,998.6,294.3,0.8,1.1,301.0,0.00,19.0,24.5,"02:30:08",1
"16/08/28","02:50",0.0,21.8,84.2,998.4,295.6,0.8,1.3,323.1,0.00,19.1,24.4,"02:43:20",1
"16/08/28","03:00",0.0,21.9,84.2,998.2,287.8,0.8,1.4,303.5,0.00,19.2,24.5,"02:53:28",1
"16/08/28","03:10",0.0,21.8,83.9,998.4,300.6,0.8,1.7,323.7,0.00,19.0,24.3,"03:09:04",1
"16/08/28","03:20",0.0,21.7,84.0,997.9,306.3,1.1,1.4,311.1,0.00,18.9,24.2,"03:11:28",1
"16/08/28","03:30",0.0,21.5,84.7,997.7,302.6,1.0,1.7,310.7,0.00,18.9,24.3,"03:27:04",1
"16/08/28","03:40",0.0,21.5,84.9,997.7,310.8,1.3,1.7,314.1,0.00,18.9,24.3,"03:30:48",1
"16/08/28","03:50",0.0,21.6,84.9,997.4,305.9,1.2,1.7,306.2,0.00,19.0,24.3,"03:40:16",1
"16/08/28","04:00",0.0,21.7,84.7,997.4,312.0,1.2,2.0,324.2,0.00,19.1,24.3,"03:57:04",1
"16/08/28","04:10",0.0,21.7,84.8,997.4,321.5,1.5,3.1,338.3,0.00,19.1,24.4,"04:06:20",1
"16/08/28","04:20",0.0,21.6,84.9,997.4,324.4,1.5,2.7,357.0,0.00,19.0,24.4,"04:15:04",1
"16/08/28","04:30",0.0,21.6,85.0,997.4,318.7,1.3,2.0,323.4,0.00,19.0,24.2,"04:29:12",1
"16/08/28","04:40",0.0,21.5,85.2,997.4,319.1,1.5,2.0,323.6,0.00,19.0,24.4,"04:36:00",1
"16/08/28","04:50",0.0,21.3,85.4,997.4,316.7,1.5,2.0,316.9,0.00,18.8,24.2,"04:40:16",1
"16/08/28","05:00",0.0,21.2,85.6,997.4,317.0,1.5,2.0,323.9,0.00,18.7,24.2,"04:59:44",1
"16/08/28","05:10",0.0,21.2,86.2,997.4,327.7,1.5,2.8,344.7,0.00,18.8,24.1,"05:07:20",1
"16/08/28","05:20",0.0,21.2,86.6,997.4,332.9,1.7,2.8,339.7,0.00,18.9,24.2,"05:12:16",1
"16/08/28","05:30",0.0,21.3,86.3,997.2,315.7,1.5,2.5,356.2,0.00,19.0,24.0,"05:20:32",1
"16/08/28","05:40",0.0,21.3,86.2,997.0,311.6,1.2,1.9,318.7,0.00,18.9,24.0,"05:38:32",1
"16/08/28","05:50",0.0,21.1,86.5,997.0,305.0,1.1,1.7,313.6,0.00,18.8,24.1,"05:44:16",1
"16/08/28","06:00",0.0,21.0,86.8,997.0,307.2,1.2,2.0,341.1,0.00,18.8,24.0,"05:54:56",1
"16/08/28","06:10",0.0,21.1,87.0,997.0,313.4,1.3,2.1,322.6,0.00,18.9,24.1,"06:08:24",1
"16/08/28","06:20",0.0,21.3,86.7,997.2,318.8,1.3,2.4,338.5,0.00,19.0,24.1,"06:12:32",1
"16/08/28","06:30",0.0,21.5,86.1,997.0,310.8,1.3,2.7,349.3,0.00,19.1,24.2,"06:21:28",1
"16/08/28","06:40",0.0,21.8,85.3,997.2,303.1,1.1,1.7,313.6,0.00,19.3,24.1,"06:31:04",1
"16/08/28","06:50",0.0,21.9,84.5,997.0,307.9,1.2,2.8,348.2,0.00,19.2,24.0,"06:45:36",1
"16/08/28","07:00",0.0,21.9,84.0,997.0,314.9,1.3,1.9,331.7,0.00,19.1,24.0,"06:56:56",1
"16/08/28","07:10",0.0,22.1,84.0,997.0,307.7,1.2,1.8,313.2,0.00,19.3,24.0,"07:01:12",1
"16/08/28","07:20",0.0,22.2,83.9,997.0,314.8,1.2,2.1,328.1,0.01,19.4,24.2,"07:14:32",1
"16/08/28","07:30",0.0,22.2,83.5,997.2,314.4,1.2,2.1,333.2,0.01,19.3,24.0,"07:27:36",1
"16/08/28","07:40",0.0,22.2,83.5,997.2,323.5,1.5,3.3,352.1,0.01,19.3,24.2,"07:34:00",1
"16/08/28","07:50",0.0,22.2,83.7,997.2,311.7,1.3,2.2,314.4,0.01,19.4,24.3,"07:46:00",1
"16/08/28","08:00",0.0,22.4,83.6,997.4,317.0,1.2,1.9,325.0,0.01,19.5,24.2,"07:56:24",1
"16/08/28","08:10",0.0,22.3,83.0,997.0,311.6,1.3,2.4,343.8,0.01,19.3,24.3,"08:02:32",1
"16/08/28","08:20",0.0,22.5,83.4,997.4,309.9,1.2,2.1,310.4,0.01,19.6,24.2,"08:15:12",1
"16/08/28","08:30",0.0,22.6,82.8,997.0,311.2,1.1,2.2,326.0,0.02,19.6,24.2,"08:23:04",1
"16/08/28","08:40",0.0,22.8,82.3,996.7,309.5,1.2,2.6,330.5,0.03,19.7,24.4,"08:37:52",1
"16/08/28","08:50",0.0,22.8,82.2,996.7,314.7,1.3,2.8,324.0,0.02,19.6,24.2,"08:48:40",1
"16/08/28","09:00",0.0,22.9,81.8,996.5,313.5,1.2,2.2,335.1,0.02,19.7,24.1,"08:54:24",1
"16/08/28","09:10",0.0,23.1,81.6,996.3,308.8,1.1,1.9,326.9,0.03,19.8,24.4,"09:09:28",1
"16/08/28","09:20",0.0,23.1,81.7,996.5,310.8,1.1,1.8,299.9,0.02,19.8,24.3,"09:10:40",1
"16/08/28","09:30",0.0,23.2,81.7,996.5,300.6,1.0,1.8,311.7,0.03,19.9,24.2,"09:28:32",1
"16/08/28","09:40",0.0,23.3,82.1,996.3,293.9,0.7,1.4,316.0,0.01,20.1,24.4,"09:30:24",1
"16/08/28","09:50",0.2,23.0,83.8,996.3,296.7,0.8,1.7,331.9,0.01,20.2,24.2,"09:40:56",1
"16/08/28","10:00",0.0,22.8,86.7,996.3,278.7,0.7,0.9,300.5,0.01,20.5,24.5,"09:54:08",1
"16/08/28","10:10",0.2,22.7,88.1,996.0,296.6,0.7,1.0,302.9,0.02,20.7,24.4,"10:01:12",1
"16/08/28","10:20",0.0,22.8,88.9,996.0,283.3,0.6,1.0,262.7,0.02,20.9,24.2,"10:13:04",1
"16/08/28","10:30",0.2,22.6,89.0,995.8,280.8,0.6,0.9,310.6,0.02,20.7,24.5,"10:20:08",1
"16/08/28","10:40",0.0,22.4,89.7,995.8,282.6,0.6,1.1,258.5,0.01,20.7,24.5,"10:34:48",1
"16/08/28","10:50",1.2,22.4,90.7,995.6,277.8,0.6,1.0,255.6,0.03,20.8,24.4,"10:45:12",1
"16/08/28","11:00",0.4,22.5,91.4,995.6,297.9,0.5,1.0,329.9,0.02,21.1,24.5,"10:58:00",1
"16/08/28","11:10",0.0,22.8,91.9,995.3,307.9,0.5,1.2,315.7,0.05,21.5,24.6,"11:00:16",1
"16/08/28","11:20",0.2,23.2,91.9,994.6,308.8,0.3,1.0,342.2,0.05,21.8,24.5,"11:18:32",1
"16/08/28","11:30",0.0,23.2,91.6,994.8,286.0,0.3,0.9,247.7,0.04,21.8,24.6,"11:23:52",1
"16/08/28","11:40",0.0,23.3,91.7,994.8,272.3,0.5,1.1,238.3,0.04,21.9,24.7,"11:36:00",1
"16/08/28","11:50",0.0,23.6,91.8,994.6,295.9,0.2,0.6,318.6,0.06,22.2,24.7,"11:46:24",1
"16/08/28","12:00",0.0,23.9,91.4,994.6,300.3,0.2,0.8,261.7,0.06,22.5,24.7,"11:55:12",1
"16/08/28","12:10",0.0,24.4,89.9,994.4,322.9,0.3,1.3,358.1,0.15,22.7,24.8,"12:00:32",1
"16/08/28","12:20",0.0,24.8,88.0,994.4,282.7,0.2,1.4,234.4,0.11,22.7,24.9,"12:12:56",1
"16/08/28","12:30",0.0,24.9,88.0,993.9,259.0,0.5,1.1,225.7,0.11,22.8,24.8,"12:22:16",1
"16/08/28","12:40",0.0,25.1,87.7,993.7,257.8,0.6,1.7,237.5,0.12,23.0,25.0,"12:33:52",1
"16/08/28","12:50",0.0,25.3,86.3,993.9,304.9,0.2,0.6,332.6,0.14,22.9,25.0,"12:45:04",1
"16/08/28","13:00",0.0,25.5,86.4,993.7,276.3,0.3,1.3,327.4,0.12,23.1,25.3,"12:59:12",1
"16/08/28","13:10",0.0,25.6,84.2,993.4,31.1,0.6,1.6,337.1,0.15,22.8,25.4,"13:00:40",1
"16/08/28","13:20",0.0,26.0,84.9,993.2,113.4,0.5,1.6,201.9,0.15,23.3,25.4,"13:13:28",1
"16/08/28","13:30",0.0,25.9,83.2,993.0,272.4,0.3,1.3,346.6,0.12,22.9,25.5,"13:26:56",1
"16/08/28","13:40",0.0,26.1,85.4,992.7,286.1,0.6,1.1,232.4,0.12,23.5,25.7,"13:31:52",1
"16/08/28","13:50",0.0,26.3,82.7,992.7,314.2,0.6,1.9,345.9,0.11,23.2,25.8,"13:46:08",1
"16/08/28","14:00",0.0,26.7,82.4,992.5,88.2,0.6,2.1,231.2,0.14,23.5,25.8,"13:50:40",1
"16/08/28","14:10",0.0,28.3,78.7,992.2,48.0,0.7,1.8,110.6,0.41,24.3,25.8,"14:08:32",1
"16/08/28","14:20",0.0,27.7,79.2,992.0,54.9,1.0,2.9,12.4,0.25,23.8,26.0,"14:18:24",1
"16/08/28","14:30",0.0,27.8,77.3,991.5,62.9,0.6,1.9,122.5,0.17,23.5,26.2,"14:28:16",1
"16/08/28","14:40",0.0,27.7,77.3,991.8,15.7,0.8,2.5,79.3,0.08,23.4,26.4,"14:39:52",1
"16/08/28","14:50",0.0,27.7,77.8,991.8,39.2,0.8,2.2,17.2,0.13,23.5,26.3,"14:42:00",1
"16/08/28","15:00",0.0,28.0,76.1,991.3,48.9,0.8,2.6,30.6,0.15,23.4,26.4,"14:59:04",1
"16/08/28","15:10",0.0,28.6,74.5,990.8,84.8,1.3,3.6,110.9,0.19,23.7,26.5,"15:04:16",1
"16/08/28","15:20",0.0,28.2,74.9,990.8,73.5,1.2,3.6,43.6,0.11,23.4,26.3,"15:13:44",1
"16/08/28","15:30",0.0,28.3,74.5,990.4,65.2,1.0,2.8,357.7,0.12,23.4,26.4,"15:28:24",1
"16/08/28","15:40",0.0,28.2,73.8,990.8,64.0,1.1,3.7,90.8,0.06,23.1,26.2,"15:31:44",1
"16/08/28","15:50",0.0,28.3,73.7,990.8,85.6,1.3,2.9,39.6,0.07,23.2,26.6,"15:44:40",1
"16/08/28","16:00",0.0,28.2,73.9,990.8,77.4,1.1,2.5,74.8,0.05,23.1,26.3,"15:59:20",1
"16/08/28","16:10",0.0,28.1,74.1,990.6,49.0,1.2,4.0,84.6,0.05,23.1,26.4,"16:09:28",1
"16/08/28","16:20",0.0,28.2,73.7,990.8,66.2,1.3,3.3,83.4,0.05,23.1,26.4,"16:14:08",1
"16/08/28","16:30",0.0,28.3,72.7,990.1,101.7,1.2,3.5,119.9,0.05,23.0,26.2,"16:27:28",1
"16/08/28","16:40",0.0,28.3,72.8,989.9,89.3,1.1,3.1,170.5,0.04,23.0,26.3,"16:32:48",1
"16/08/28","16:50",0.0,28.1,72.9,990.4,98.2,1.1,4.4,122.8,0.01,22.8,26.2,"16:46:32",1
"16/08/28","17:00",0.0,28.0,73.2,990.4,108.3,1.2,2.8,122.0,0.03,22.8,26.2,"16:53:20",1
"16/08/28","17:10",0.0,28.1,72.6,990.6,103.3,1.5,3.5,137.2,0.02,22.8,26.2,"17:00:56",1
"16/08/28","17:20",0.0,28.1,72.8,990.4,78.1,1.1,3.1,42.7,0.03,22.8,26.2,"17:14:24",1
"16/08/28","17:30",0.0,28.0,72.7,990.4,85.1,1.1,3.5,102.8,0.02,22.7,26.1,"17:20:16",1
"16/08/28","17:40",0.0,27.8,73.4,990.4,68.5,0.8,2.9,93.3,0.01,22.6,26.0,"17:35:36",1
"16/08/28","17:50",0.0,27.6,73.4,990.8,59.0,0.6,2.0,99.5,0.01,22.5,25.9,"17:47:04",1
"16/08/28","18:00",0.0,27.5,73.7,990.6,88.9,0.8,2.5,96.1,0.02,22.4,26.0,"17:54:16",1
"16/08/28","18:10",0.0,27.5,73.9,990.6,119.7,0.7,2.9,136.2,0.01,22.5,25.9,"18:06:48",1
"16/08/28","18:20",0.0,27.4,74.1,990.6,127.5,0.8,2.8,128.2,0.00,22.4,26.1,"18:11:52",1
"16/08/28","18:30",0.0,27.2,74.1,990.8,126.4,1.0,3.5,107.3,0.00,22.2,25.8,"18:27:28",1
"16/08/28","18:40",0.0,27.3,74.5,990.8,131.5,1.1,2.9,101.7,0.00,22.4,25.9,"18:34:24",1
"16/08/28","18:50",0.0,27.2,75.2,990.6,89.3,1.2,3.1,121.0,0.00,22.5,25.7,"18:42:40",1
"16/08/28","19:00",0.0,27.0,76.4,990.6,63.1,0.8,2.4,154.0,0.00,22.5,25.7,"18:51:36",1
"16/08/28","19:10",0.0,26.8,77.0,990.8,79.1,1.0,2.5,43.9,0.00,22.5,25.8,"19:01:12",1
"16/08/28","19:20",0.0,26.8,76.3,990.8,135.3,1.5,3.5,163.4,0.00,22.3,25.8,"19:18:32",1
"16/08/28","19:30",0.0,26.8,75.2,990.6,156.9,1.5,4.3,191.3,0.00,22.1,25.7,"19:24:16",1
"16/08/28","19:40",0.0,26.8,74.8,990.8,148.0,1.2,2.8,145.2,0.00,22.0,25.9,"19:30:40",1
"16/08/28","19:50",0.0,26.8,74.7,990.8,154.9,1.6,3.3,145.6,0.00,22.0,25.7,"19:45:04",1
"16/08/28","20:00",0.0,26.7,74.9,990.6,161.8,1.5,3.4,208.5,0.00,21.9,25.7,"19:56:40",1
"16/08/28","20:10",0.0,26.6,75.5,990.4,146.5,1.0,3.1,151.9,0.00,22.0,25.6,"20:03:20",1
"16/08/28","20:20",0.0,26.5,76.1,990.8,140.0,0.7,1.9,128.9,0.00,22.0,25.4,"20:14:56",1
"16/08/28","20:30",0.0,26.5,76.2,990.6,82.1,0.6,1.6,88.0,0.00,22.0,25.6,"20:20:02",1
"16/08/28","20:40",0.0,26.5,76.5,990.6,96.1,0.8,3.2,131.9,0.00,22.1,25.6,"20:30:24",1
"16/08/28","20:50",0.0,26.4,76.4,990.4,97.6,0.6,1.6,77.2,0.00,22.0,25.4,"20:44:08",1
"16/08/28","21:00",0.0,26.4,76.1,990.4,86.6,0.8,2.5,104.9,0.00,21.9,25.2,"20:55:04",1
"16/08/28","21:10",0.2,26.4,76.2,989.9,98.7,1.0,2.5,64.0,0.00,21.9,25.4,"21:00:40",1
"16/08/28","21:20",0.0,26.4,76.6,990.4,99.1,1.1,3.1,76.0,0.00,22.0,25.5,"21:14:00",1
"16/08/28","21:30",0.0,26.4,76.5,989.9,61.1,1.0,2.7,108.8,0.00,22.0,25.4,"21:28:08",1
"16/08/28","21:40",0.0,26.4,76.3,990.1,74.8,1.0,3.4,61.6,0.00,21.9,25.3,"21:35:20",1
"16/08/28","21:50",0.0,26.4,76.6,990.1,107.2,0.8,1.9,52.4,0.00,22.0,25.4,"21:41:12",1
"16/08/28","22:00",0.0,26.3,76.9,990.1,87.3,0.8,2.6,88.3,0.00,22.0,25.3,"21:54:24",1
"16/08/28","22:10",0.0,26.2,77.6,990.1,120.2,0.7,2.2,144.7,0.00,22.0,25.2,"22:03:04",1
"16/08/28","22:20",0.0,26.2,77.7,989.9,48.3,0.8,1.9,77.1,0.00,22.0,25.3,"22:12:16",1
"16/08/28","22:30",0.0,26.1,77.9,990.1,74.8,0.8,2.1,65.5,0.00,22.0,25.3,"22:20:48",1
"16/08/28","22:40",0.0,26.0,78.6,989.9,87.6,1.1,3.4,136.6,0.00,22.0,25.2,"22:34:48",1
"16/08/28","22:50",0.0,25.9,79.3,989.9,75.3,1.0,2.8,68.4,0.00,22.1,25.3,"22:45:20",1
"16/08/28","23:00",0.0,25.8,79.6,989.6,59.6,1.0,2.7,31.5,0.00,22.0,25.1,"22:56:40",1
"16/08/28","23:10",0.0,25.7,79.8,989.6,80.2,0.8,2.4,66.2,0.00,22.0,25.1,"23:08:00",1
"16/08/28","23:20",0.0,25.7,79.8,989.4,65.9,0.8,1.8,126.8,0.00,22.0,25.1,"23:11:28",1
"16/08/28","23:30",0.0,25.7,79.9,989.6,64.1,0.7,1.9,7.0,0.00,22.0,25.0,"23:23:20",1
"16/08/28","23:40",0.0,25.6,79.9,989.4,60.6,1.0,3.1,37.8,0.00,21.9,25.1,"23:34:32",1
"16/08/28","23:50",0.0,25.6,79.7,989.2,54.9,0.7,2.1,135.6,0.00,21.9,25.0,"23:41:04",1
"16/08/28","24:00",0.0,25.7,79.4,989.2,71.1,0.8,2.0,110.4,0.00,21.9,25.0,"23:55:20",1
